Flag for Switzerland Weather past 2 weeks in Langenthal, Bern, Switzerland

Now
62 °F

Cool.


Feels Like: 62 °F
Forecast: 49 / 66 °F
Wind: 1 mph from Southwest

Location: Wynau

Current Time: Sep 2, 2015 at 10:03:56 PM

Latest Report: Sep 2, 2015 at 9:00 PM


Visibility: N/A

Pressure: 29.96 "Hg

Humidity: 74%

Dew point: 53 °F

Location of LangenthalLocation

Historic Weather in Langenthal — Graph

°F

Langenthal temperature yesterday

Maximum temperature yesterday: 75 °F (at 1:00 PM)
Minimum temperature yesterday: 61 °F (at 10:00 PM)
Average temperature yesterday: 66 °F

Past Weeks' High & Low Weather Summary

 TemperatureHumidityPressure
High92 °F (Aug 30, 4:00 PM)100% (Aug 20, 4:00 AM)30.26 "Hg (Aug 20, 4:00 AM)
Low47 °F (Aug 26, 7:00 AM)23% (Aug 30, 5:00 PM)29.71 "Hg (Aug 24, 7:00 AM)
Average66 °F74%30.02 "Hg
* Reported Aug 18 8:00 PM — Sep 2 8:00 PM, Langenthal, Weather by CustomWeather, © 2015

Note: Actual official high and low records may vary slightly from our data, if they occured in-between our weather recording intervals... More about our weather records

Advertising

Langenthal weather history for previous 24 hours

 ConditionsComfort  
Time TempWeatherWind HumidityBarometerVisibility
8:00 PM
Wed, Sep 2
64 °FMild.3 mph70%29.95 "HgN/A
7:00 PM69 °FMild.2 mph51%29.93 "HgN/A
6:00 PM70 °FMild.5 mph47%29.93 "HgN/A
5:00 PM70 °FMild.3 mph50%29.93 "HgN/A
4:00 PM72 °FMild.6 mph53%29.93 "HgN/A
3:00 PM71 °FMild.5 mph49%29.94 "HgN/A
2:00 PM69 °FMild.8 mph50%29.96 "HgN/A
1:00 PM67 °FMild.7 mph54%29.97 "HgN/A
12:00 PM68 °FMild.8 mph60%29.98 "HgN/A
11:00 AM64 °FMild.7 mph71%30.00 "HgN/A
10:40 AM63 °FMild.8 mph74%30.00 "HgN/A
10:00 AM62 °FCool.7 mph78%30.01 "HgN/A
9:00 AM60 °FCool.5 mph83%30.02 "HgN/A
8:00 AM59 °FCool.6 mph91%30.03 "HgN/A
7:00 AM59 °FCool.2 mph96%30.03 "HgN/A
4:00 AM59 °FCool.1 mph96%30.05 "HgN/A
3:00 AM60 °FCool.2 mph95%30.06 "HgN/A
2:00 AM60 °FCool.1 mph98%30.06 "HgN/A
1:00 AM60 °FCool.1 mph98%30.07 "HgN/A
12:00 AM61 °FCool.No wind98%30.06 "HgN/A
10:00 PM
Tue, Sep 1
61 °FCool.2 mph98%30.06 "HgN/A
Weather by CustomWeather, © 2015

See weather overviewHow to use our weather pages